Glendive, MT

2:02 PM MST on December 15, 2019 (GMT -0700)
Dawson Community

Weather History for KGDV - October, 2019

Change the Weather History Date:

Saturday, October 19, 2019

  Actual Average Record
Temperature  
Mean Temperature 45 °F 47 °F  
Max Temperature 58 °F 59 °F 84 °F (2003)
Min Temperature 31 °F 34 °F 24 °F (2016)
Degree Days  
Heating Degree Days 20 19  
Month to date heating degree days 424 280  
Year to date heating degree days 6291 4679  
Since 1 July heating degree days 725 387  
Cooling Degree Days 0 0  
Month to date cooling degree days 0 0  
Year to date cooling degree days 465 382  
Since 1 July cooling degree days 465 382  
Moisture  
Dew Point 25 °F    
Average Humidity 48    
Maximum Humidity 70    
Minimum Humidity 27    
Precipitation  
Precipitation 0.00 in 0.03 in 0.10 in (2004)
Month to date precipitation 0.40 0.78  
Year to date precipitation 17.57 12.44  
Sea Level Pressure  
Sea Level Pressure 29.68 in    
Wind  
Wind Speed 14 mph (West)    
Max Wind Speed 22 mph    
Max Gust Speed 26 mph    
Visibility 10 miles    
Events      
T = Trace of Precipitation, MM = Missing Value Source: NWS Daily Summary

Daily Weather History Graph

Daily Weather History Graph

Search for Another Location

Airport or City:

Astronomy

Oct. 19, 2019 Rise Set
Actual Time 7:22 AM MDT 6:04 PM MDT
Civil Twilight 6:51 AM MDT 6:35 PM MDT
Nautical Twilight 6:16 AM MDT 7:11 PM MDT
Astronomical Twilight 5:41 AM MDT 7:46 PM MDT
Moon 9:59 PM MDT (10/19) 1:14 PM MDT (10/19)
Length of Visible Light 11h 43m
Length of Day
10h 41m
Waning Gibbous, 69% of the Moon is Illuminated
Oct 19
Waning Gibbous
Oct 21
Last Quarter
Oct 27
New
Nov 4
First Quarter
Nov 12
Full

Hourly Weather History & Observations

Time (MDT) Temp. Windchill Dew Point Humidity Pressure Visibility Wind Dir Wind Speed Gust Speed Precip Events Conditions
12:56 AM 44.1 °F 35.4 °F 30.9 °F 60% 29.68 in 10.0 mi WNW 21.9 mph - N/A   Clear
1:56 AM 42.1 °F 34.5 °F 30.9 °F 65% 29.68 in 10.0 mi West 15.0 mph - N/A   Clear
2:56 AM 39.9 °F 32.1 °F 30.0 °F 68% 29.69 in 10.0 mi West 13.8 mph - N/A   Clear
3:56 AM 39.9 °F 32.1 °F 27.0 °F 60% 29.69 in 10.0 mi West 13.8 mph - N/A   Clear
4:56 AM 41.0 °F 33.1 °F 25.0 °F 53% 29.70 in 10.0 mi West 15.0 mph - N/A   Clear
5:56 AM 41.0 °F 33.9 °F 25.0 °F 53% 29.72 in 10.0 mi West 12.7 mph - N/A   Scattered Clouds
6:56 AM 39.9 °F 32.1 °F 25.0 °F 55% 29.74 in 10.0 mi West 13.8 mph - N/A   Partly Cloudy
7:56 AM 39.9 °F 32.1 °F 25.0 °F 55% 29.74 in 10.0 mi West 13.8 mph - N/A   Clear
8:56 AM 44.1 °F 37.1 °F 26.1 °F 49% 29.74 in 10.0 mi West 15.0 mph 21.9 mph N/A   Clear
9:56 AM 50.0 °F - 26.1 °F 39% 29.71 in 10.0 mi West 20.7 mph 26.5 mph N/A   Clear
10:56 AM 52.0 °F - 26.1 °F 37% 29.71 in 10.0 mi West 18.4 mph 26.5 mph N/A   Clear
11:56 AM 54.0 °F - 25.0 °F 33% 29.69 in 10.0 mi West 16.1 mph - N/A   Clear
12:56 PM 55.9 °F - 25.0 °F 30% 29.68 in 10.0 mi West 12.7 mph 20.7 mph N/A   Clear
1:56 PM 57.0 °F - 24.1 °F 28% 29.66 in 10.0 mi West 16.1 mph 21.9 mph N/A   Clear
2:56 PM 57.0 °F - 25.0 °F 29% 29.65 in 10.0 mi West 11.5 mph - N/A   Clear
3:56 PM 57.0 °F - 23.0 °F 27% 29.64 in 10.0 mi WSW 11.5 mph - N/A   Clear
4:56 PM 55.0 °F - 21.9 °F 28% 29.63 in 10.0 mi WSW 8.1 mph - N/A   Clear
5:56 PM 51.1 °F - 23.0 °F 33% 29.64 in 10.0 mi WSW 3.5 mph - N/A   Clear
6:56 PM 44.1 °F - 21.9 °F 42% 29.65 in 10.0 mi Calm Calm - N/A   Clear
7:56 PM 37.9 °F 35.5 °F 23.0 °F 55% 29.65 in 10.0 mi WSW 3.5 mph - N/A   Clear
8:56 PM 35.1 °F - 24.1 °F 64% 29.66 in 10.0 mi Calm Calm - N/A   Clear
9:56 PM 37.0 °F 34.5 °F 23.0 °F 57% 29.64 in 10.0 mi NNE 3.5 mph - N/A   Clear
10:56 PM 34.0 °F 28.8 °F 25.0 °F 70% 29.65 in 10.0 mi NNE 5.8 mph - N/A   Clear
11:56 PM 33.1 °F 27.7 °F 24.1 °F 70% 29.64 in 10.0 mi NE 5.8 mph - N/A   Clear